YAOGAN-32 B

Satellite information

Favourite Embed

Satellite Type and Status

PAYLOADIN ORBIT

Key statistics

Satellite YAOGAN-32 B at a glance.

Uptime

2407

Days in orbit

Revolutions

≈ 14.6

Per day

Orbit

SSO

Sun Synchronous Orbit

Inclination

97.9

Latest

Satellite identification and parameters

Extended collection of information and parameters for YAOGAN-32 B.

Object identification

Identified? True

Debris? False

Object name: YAOGAN-32 B

International designator: 2018-077B

Object number (NORAD): 43643

Object ID (CCSDS): 43643

Country: PEOPLES REPUBLIC OF CHINA (PRC)

Current information (Y/N): Y

RCS size: LARGE

Orbital parameters

Period: 98.46 minutes

Inclination: 97.9435 deg

SMA: 7063.2 km

Apoapsis: 686.086 km

Periapsis: 684.043 km

RAAN: 167.0322 deg

Eccentricy: 0.0001446

Argument of periapsis: 89.0643 deg

Mean anomaly: 271.0725 deg

Mean motion: 14.6251565 rev/day

Mean motion (dot): 0.00000807 rev/day2

B* drag term: 0.00016792 1/REarth

Two-line elements (TLE)

Creation date: May 12, 2025, 2:31 a.m.

Reference frame: TEME

Reference center: EARTH

Epoch: May 11, 2025, 11 p.m. UTC

TLE line 0: 0 YAOGAN-32 B

TLE line 1: 1 43643U 18077B 25131.95898561 .00000807 00000-0 16792-3 0 9999

TLE line 2: 2 43643 97.9435 167.0322 0001446 89.0643 271.0725 14.62515650351171

Live tracking on map

Real-time ground track for satellite YAOGAN-32 B.

In-orbit conjunctions

There are no conjunctions computed for YAOGAN-32 B, at the moment. Check back to stay up to date, as we update our databases every day.

Go to all conjunctions

Associated space launch

Yaogan is a series of Chinese reconnaissance satellites.

YAOGAN-32 B was lifted into orbit during the mission ‘Long March 2C/YZ-1S | Yaogan-32-01’, on board a Long March 2C/YZ-1S space rocket.

The launch took place on Oct. 9, 2018, 2:43 a.m. from Launch Area 4 (SLS-2 / 603).

For more information about the launch, click the button.

Launch to space Long March 2C/YZ-1S | Yaogan-32-01
Long March 2C/YZ-1S | Yaogan-32-01

Agency: N/A

Status: Launch Successful

Launch date: Oct. 9, 2018, 2:43 a.m. UTC

Rocket: Long March 2C/YZ-1S

Launch pad: Launch Area 4 (SLS-2 / 603)

Location: Jiuquan Satellite Launch Center, People's Republic of China

...

Latest news about this satellite

There are no fresh news available about this satellite. Check back as we update our databases every day.


Newsletter sign-up

Weekly statistics, charts and insights to help you stay on top of the space industry.